カタログに戻る

STARLINK-37931

運用中通信VLEO
NORAD 69963·PAYLOAD·🇺🇸 United States

打ち上げ Jul 9, 2026 から Cape Canaveral Space Force Station

Loading…

次のパス (今後24時間)

TLE

最新Source: CelesTrak SupGP

元期: Sep 15, 2026, 02:57 UTC

1 69963C 26157W   26258.12340278  .00067990  00000+0  20095-2 0  2580
2 69963  53.1586 358.9128 0001321  92.7712   9.4136 15.34345551    14

AllMySatでSTARLINK-37931をリアルタイム追跡

Download on the App Store